Weather History for Poplar Bluff, MO

Change the Weather History Date:

Friday, April 12, 2013

  Actual Average Record
Temperature  
Mean Temperature 51 °F -  
Max Temperature 64 °F 70 °F 89 °F (1941)
Min Temperature 39 °F 45 °F 26 °F (1940)
Degree Days  
Heating Degree Days 14    
Growing Degree Days 1 (Base 50)    
Moisture  
Dew Point 34 °F    
Average Humidity 55    
Maximum Humidity 83    
Minimum Humidity 31    
Precipitation  
Precipitation 0.00 in - - ()
Sea Level Pressure  
Sea Level Pressure 29.88 in    
Wind  
Wind Speed 6 mph (West)    
Max Wind Speed 17 mph    
Max Gust Speed 24 mph    
Visibility 10 miles    
Events      
Averages and records for this station are not official NWS values.
T = Trace of Precipitation, MM = Missing Value Source: NWS Daily Summary

Daily Weather History Graph

Daily Weather History Graph

Search for Another Location

Airport:

Trip Planner

Search our weather history database for the weather conditions in past years. The results will help you decide how hot, cold, wet, or windy it might be!

Date:

Astronomy

Apr. 12, 2013 Rise Set
Actual Time 6:31 AM CDT 7:33 PM CDT
Civil Twilight 6:04 AM CDT 8:00 PM CDT
Nautical Twilight 5:33 AM CDT 8:31 PM CDT
Astronomical Twilight 5:00 AM CDT 9:04 PM CDT
Moon 7:44 AM CDT (4/12) 10:00 PM CDT (4/12)
Length of Visible Light 13h 55m
Length of Day
13h 02m
Waxing Crescent, 5% of the Moon is Illuminated
Apr 12
Waxing Crescent
Apr 18
First Quarter
Apr 25
Full
May 2
Last Quarter
May 9
New

Hourly Weather History & Observations

Time (CDT) Temp. Windchill Dew Point Humidity Pressure Visibility Wind Dir Wind Speed Gust Speed Precip Events Conditions
12:53 AM 45.0 °F - 32.0 °F 60% 29.81 in 10.0 mi Calm Calm - N/A   Clear
1:53 AM 41.0 °F 39.0 °F 35.1 °F 79% 29.81 in 10.0 mi SSW 3.5 mph - N/A   Clear
2:53 AM 41.0 °F 38.0 °F 34.0 °F 76% 29.80 in 10.0 mi SW 4.6 mph - N/A   Clear
3:53 AM 42.1 °F 40.2 °F 32.0 °F 67% 29.81 in 10.0 mi SW 3.5 mph - N/A   Clear
4:53 AM 39.9 °F 37.8 °F 34.0 °F 79% 29.82 in 10.0 mi SSW 3.5 mph - N/A   Clear
5:53 AM 39.9 °F 37.8 °F 34.0 °F 79% 29.83 in 10.0 mi SSW 3.5 mph - N/A   Clear
6:53 AM 39.9 °F - 35.1 °F 83% 29.85 in 10.0 mi Calm Calm - N/A   Clear
7:53 AM 44.1 °F 41.5 °F 37.0 °F 76% 29.86 in 10.0 mi WSW 4.6 mph - N/A   Mostly Cloudy
8:53 AM 48.0 °F - 35.1 °F 61% 29.88 in 10.0 mi West 8.1 mph - N/A   Partly Cloudy
9:53 AM 51.1 °F - 35.1 °F 54% 29.87 in 10.0 mi SW 9.2 mph - N/A   Clear
10:53 AM 54.0 °F - 34.0 °F 47% 29.88 in 10.0 mi West 16.1 mph 23.0 mph N/A   Clear
11:53 AM 57.0 °F - 35.1 °F 44% 29.88 in 10.0 mi West 12.7 mph 24.2 mph N/A   Clear
12:53 PM 59.0 °F - 35.1 °F 41% 29.87 in 10.0 mi West 9.2 mph - N/A   Clear
1:53 PM 61.0 °F - 33.1 °F 35% 29.87 in 10.0 mi West 16.1 mph 24.2 mph N/A   Clear
2:53 PM 62.1 °F - 33.1 °F 34% 29.88 in 10.0 mi West 17.3 mph 23.0 mph N/A   Clear
3:53 PM 63.0 °F - 32.0 °F 31% 29.86 in 10.0 mi West 9.2 mph 21.9 mph N/A   Clear
4:53 PM 63.0 °F - 33.1 °F 33% 29.87 in 10.0 mi WNW 11.5 mph - N/A   Clear
5:53 PM 63.0 °F - 32.0 °F 31% 29.89 in 10.0 mi WNW 13.8 mph - N/A   Clear
6:53 PM 60.1 °F - 32.0 °F 35% 29.90 in 10.0 mi WNW 11.5 mph 19.6 mph N/A   Clear
7:53 PM 55.0 °F - 36.0 °F 49% 29.92 in 10.0 mi NNW 6.9 mph - N/A   Clear
8:53 PM 53.1 °F - 34.0 °F 48% 29.96 in 10.0 mi NW 5.8 mph - N/A   Clear
9:53 PM 51.1 °F - 35.1 °F 54% 29.99 in 10.0 mi NNW 6.9 mph - N/A   Clear
10:53 PM 46.9 °F - 35.1 °F 63% 30.02 in 10.0 mi NNE 4.6 mph - N/A   Clear
11:53 PM 46.0 °F 41.9 °F 36.0 °F 68% 30.05 in 10.0 mi NE 8.1 mph - N/A   Clear